Location: Chochol
(49.7771°N, 14.9780°E)
Time: 02:02:35
(UTC+00:00)

Cosmos 1741 Rocket - Pass Details

Date: 09 April 2020
Orbit: 762 x 782 km, 74.0° (Epoch: 03 June)

Event Time Altitude Azimuth Distance (km) Brightness Sun altitude
Exits shadow 19:40:55 20° 171° (S) 1,744 5.4 -17.7°
Maximum altitude 19:44:20 48° 106° (ESE) 1,018 4.2 -18.1°
Drops below altitude 10° 19:49:27 10° 33° (NNE) 2,347 6.6 -18.8°
Sets 19:51:54 0° 28° (NNE) 3,278 7.4 -19.1°
